Вернуться в каталог

STARLINK-5924

АктивенСвязьVLEO
NORAD 55963·PAYLOAD·🇺🇸 United States

Запущен Mar 17, 2023 с Vandenberg Space Force Base

Loading…

Ближайшие Пролёты (ближайшие 24 часа)

TLE

СвежийSource: CelesTrak SupGP

Эпоха: Sep 14, 2026, 21:49 UTC

1 55963C 23037BB  26257.90951389 -.00026049  00000+0 -21833-2 0  2577
2 55963  70.0011 147.3308 0002720 271.1876 225.1629 14.98340167    19

Отслеживайте STARLINK-5924 в реальном времени с AllMySat

Download on the App Store